KLHM

Details ICAO KLHM
Name LINCOLN RGNL KARL HARDER FLD
Region United States
Timezone America/Los_Angeles (UTC-7.0)
Plans Departing 14
Arriving 15
Stats Elevation 121 ft / 37 m (AMSL)
Location 38.909163° -121.351337°
Runways 1
Magnetic Variation 13.535° E
Sunrise 2018-05-20 12:50:07 UTC / 2018-05-20 05:50:07 Local
Sunset 2018-05-21 03:16:37 UTC / 2018-05-20 20:16:37 Local
Advertisement - Login to hide

Runways

ID Width Length Bearing (true) Bearing (mag) Surface Threshold Offset Overrun Length
15 100 ft / 30 m 6,011 ft / 1,832 m 165.37° 151.84° Asphalt 0 ft / 0 m 0 ft / 0 m
33 100 ft / 30 m 6,011 ft / 1,832 m 345.37° 331.84° Asphalt 0 ft / 0 m 0 ft / 0 m

Approach Navaids

Runway Type Ident Frequency Range Bearing (true) Bearing (mag) Slope Elevation
15 Localiser ILHM 108.75 MHz 18 nm / 33 km 165.37° 151.83° - 121 ft / 37 m (AMSL)
15 Glidescope ILHM 108.75 MHz 10 nm / 19 km 165.37° 151.83° 3.00° 118 ft / 36 m (AMSL)
15 DME ILHM 108.75 MHz 18 nm / 33 km - - - 121 ft / 37 m (AMSL)

Map

Weather


0- 5 10 15 20 25 30 35+ Temperature / ° C

Clouds and Precipitation
Forecast for 2018-05-21 06:00 UTC. Updated 2 hours ago

Ground ~20,000 ft ~40,000 ft Winds

METAR

KLHM 210715Z AUTO 16003KT 10SM CLR 12/08 A2985 RMK AO1

TAF

Not found

Frequencies

Recorded 124.25 MHz AWOS 3
Approach 125.40 MHz NORCAL APP/DEP
Unicom 123.00 MHz CTAF/UNICOM
Warning: Do not use this data for real-world aviation or navigation. No guarantee of current accuracy is given.